Temp
61 51 47 53 56 55 52 48 46 52 58 55 54 55 59 63 64 63 66 68 69 69 75 78 79 80 81 83 82 83 82 80 79 74 73 73 74 75 78 80 79 77 77 77
52 46 57 57 55 51 49 45 45 52 57 54 52 51 58 62 56 51 51 51 52 57 60 62 60 63 74 77 78 80 80 83 81 78 78 75 76 78 80 80 79 78 77 77
44 50 57 53 50 47 48 46 46 45 51 53 51 49 51 55 51 50 48 47 46 46 50 55 56 56 59 59 58 66 78 82 82 80 77 75 75 75 74 77 79 77 77 77
47 56 52 50 48 50 41 50 48 46 44 37 51 33 35 44 43 44 42 41 41 41 43 48 49 49 52 54 56 57 62 71 81 80 76 73 71 70 72 74 73 77 77 76
44 49 48 46 47 50 44 52 48 47 42 41 42 37 32 41 35 38 39 40 39 39 39 41 45 45 49 49 52 55 59 62 68 78 78 75 71 71 75 71 73 75 76 76
49 58 53 50 51 52 53 47 47 47 44 30 33 32 26 30 31 35 38 38 38 38 39 39 42 44 44 46 48 51 54 59 60 63 75 74 73 72 71 71 70 70 75 75
44 48 52 52 44 50 46 40 29 29 30 28 37 30 27 33 35 36 37 37 39 38 37 37 38 39 40 41 42 48 50 53 56 56 62 69 74 72 71 71 70 71 71 73
29 29 43 49 45 40 41 39 27 19 24 28 36 23 27 37 41 42 41 39 40 39 38 37 38 39 39 40 39 43 47 48 51 52 57 59 71 72 72 72 71 71 72 73
28 30 45 50 51 46 38 33 41 30 34 25 26 28 37 39 37 38 38 36 36 38 38 37 38 39 39 38 38 40 43 46 47 48 50 51 55 61 70 71 72 71 71 73
31 26 41 47 51 47 41 44 29 33 22 17 24 25 23 28 30 34 33 33 36 38 38 40 39 39 40 40 38 39 41 43 45 46 47 47 48 51 53 55 58 60 64 68
34 30 35 45 36 32 33 31 32 31 29 23 19 21 31 30 32 32 33 33 34 35 37 39 40 41 41 41 38 38 39 41 42 43 44 45 46 46 48 48 50 51 53 56
46 33 29 37 47 46 39 32 31 27 24 28 26 21 32 32 34 36 34 34 35 38 40 40 41 41 41 41 38 37 39 40 41 42 42 43 45 45 44 45 46 46 50 51
43 35 28 34 40 43 34 36 34 32 32 25 23 23 35 36 36 37 36 37 38 40 41 42 41 40 40 41 40 37 41 40 41 42 40 41 41 42 42 43 44 45 46 47
46 35 30 27 30 36 30 32 33 30 25 25 23 26 30 33 34 35 39 43 43 43 43 43 42 40 40 41 41 37 39 41 41 41 40 39 40 40 41 41 42 42 44 44
46 32 40 42 42 41 36 33 31 27 27 23 25 26 30 32 35 41 44 46 45 44 45 44 43 42 41 41 42 41 39 41 41 41 40 39 41 41 40 40 39 40 41 42
50 37 42 37 43 41 34 37 35 32 30 29 30 29 34 39 46 44 45 45 44 45 46 46 46 45 43 41 41 41 39 40 42 39 40 41 41 42 41 41 40 38 39 39
43 40 37 32 43 38 28 29 35 35 34 33 27 32 39 41 44 43 44 45 45 46 47 47 47 46 45 43 42 41 41 41 41 40 41 42 42 42 40 41 40 39 37 38
41 41 39 32 36 21 33 42 41 38 40 42 42 43 45 47 49 48 48 46 46 47 48 48 48 48 47 46 44 45 45 42 40 41 41 42 42 42 42 41 40 40 40 38
50 42 34 30 30 33 38 42 36 36 33 45 44 46 47 50 51 46 50 50 49 50 50 50 51 50 49 47 46 46 45 45 43 42 42 43 42 42 41 40 40 41 40 39
50 47 37 33 27 24 36 47 52 46 28 45 48 46 45 47 36 41 49 51 50 52 53 51 52 52 50 49 48 46 45 45 43 43 44 44 43 42 41 40 40 41 40 40
38 38 32 31 28 35 45 49 52 29 31 48 49 48 46 41 44 48 51 51 52 53 53 53 53 50 50 50 48 46 45 44 46 46 47 45 44 42 42 41 41 40 39 38
35 32 33 34 28 25 49 48 37 43 50 50 50 49 47 47 49 50 50 50 51 51 52 53 51 50 51 50 47 45 44 47 47 47 47 45 43 43 42 40 39 38 38 37
35 40 36 37 34 46 51 50 53 54 50 50 50 51 50 48 48 49 49 50 50 51 51 52 51 50 50 49 48 44 46 48 46 45 45 44 43 41 41 38 37 37 38 36
47 51 40 39 46 49 51 54 53 55 53 54 54 52 51 48 48 48 49 49 50 51 49 50 50 47 45 46 47 46 47 47 44 42 44 43 41 39 39 39 38 37 36 35
48 50 45 44 49 50 51 53 54 54 55 55 55 53 51 51 50 50 49 49 49 49 49 49 47 44 43 44 45 46 45 44 41 41 42 41 39 38 37 38 37 36 37 37
51 47 42 39 51 49 50 54 56 53 53 55 53 51 53 52 50 50 48 49 49 48 48 46 45 44 42 42 44 44 44 42 40 39 38 37 35 36 36 36 36 38 36 36
MSLP
1013.44 1013.14 1012.72 1012.39 1012.11 1011.93 1011.60 1010.96 1009.82 1009.59 1009.02 1007.97 1007.40 1006.43 1006.35 1006.82 1006.77 1006.37 1005.73 1005.14 1004.48 1004.11 1002.38 1002.13 1001.46 1000.38 1000.04 999.28 999.25 998.90 998.73 998.55 999.47 1000.72 1001.80 1002.77 1002.99 1003.78 1003.61 1004.34 1005.07 1005.92 1006.88 1007.76
1014.06 1013.20 1012.74 1012.99 1013.31 1013.26 1012.85 1011.93 1010.78 1009.55 1009.39 1009.21 1008.35 1007.68 1007.63 1007.64 1008.99 1009.75 1009.88 1009.38 1008.86 1007.50 1006.07 1005.40 1004.66 1003.23 1001.42 1000.32 999.96 999.48 999.49 998.31 998.11 999.28 1000.07 1001.39 1002.03 1002.59 1002.66 1003.23 1004.29 1004.94 1006.08 1006.89
1015.09 1014.42 1013.92 1014.10 1013.91 1013.65 1012.94 1012.13 1011.24 1010.59 1010.09 1009.88 1008.96 1008.10 1008.29 1009.61 1011.55 1011.81 1012.18 1012.56 1012.28 1012.15 1010.07 1008.33 1007.20 1006.46 1005.33 1004.42 1003.63 1001.65 999.21 998.28 997.35 997.94 998.87 1000.28 1001.32 1001.48 1002.01 1002.30 1003.12 1004.23 1005.22 1006.21
1015.57 1014.64 1014.51 1014.37 1014.01 1013.75 1013.19 1013.05 1012.14 1011.22 1010.62 1009.55 1009.82 1010.07 1012.39 1013.06 1014.00 1014.32 1014.97 1015.06 1014.65 1014.00 1012.92 1011.29 1009.54 1007.66 1007.09 1006.53 1005.38 1003.12 1001.11 999.05 997.37 996.78 997.68 998.76 999.97 999.69 1000.88 1001.79 1002.35 1002.75 1004.27 1005.06
1016.16 1015.22 1014.91 1014.62 1014.54 1014.78 1013.68 1012.69 1012.14 1011.25 1010.93 1010.62 1009.93 1011.70 1015.43 1015.48 1015.37 1016.29 1017.12 1017.24 1017.31 1016.59 1015.56 1014.24 1013.14 1011.96 1010.22 1008.77 1007.06 1004.58 1003.33 1000.19 999.04 998.24 996.15 997.26 999.02 999.72 1000.57 1001.07 1001.62 1002.24 1003.36 1004.18
1016.42 1015.60 1015.42 1015.38 1015.31 1014.62 1013.85 1012.92 1011.33 1010.72 1010.82 1011.82 1013.05 1013.62 1016.88 1017.80 1019.02 1019.43 1019.33 1018.75 1018.36 1017.52 1016.82 1015.64 1014.16 1012.95 1011.58 1010.33 1007.97 1005.80 1003.83 1002.75 1001.25 999.99 997.40 996.95 997.69 999.07 999.89 1000.17 1000.65 1001.61 1001.58 1003.42
1017.73 1016.47 1016.54 1016.48 1015.92 1014.78 1014.61 1013.79 1012.36 1011.61 1011.73 1013.11 1014.57 1016.11 1019.65 1020.27 1020.37 1020.72 1020.32 1019.53 1018.97 1018.31 1017.27 1015.96 1014.80 1013.57 1012.04 1010.53 1008.94 1006.52 1005.66 1004.00 1002.02 1000.54 998.11 998.71 996.79 997.71 998.83 999.57 999.69 1000.81 1001.34 1002.21
1020.25 1018.48 1018.00 1017.66 1016.68 1016.29 1015.61 1015.51 1015.54 1014.53 1014.24 1015.05 1016.07 1018.89 1020.64 1021.16 1021.63 1021.37 1021.08 1020.24 1019.40 1018.47 1018.13 1017.28 1016.12 1014.81 1013.55 1012.09 1009.91 1008.70 1007.05 1005.58 1004.54 1002.99 999.35 998.91 998.02 997.01 997.75 998.59 999.40 999.29 999.76 1001.12
1022.09 1020.47 1019.13 1017.92 1017.11 1017.41 1016.69 1016.60 1016.40 1016.02 1015.80 1016.59 1019.38 1020.84 1020.50 1021.98 1022.31 1021.87 1021.04 1020.56 1020.04 1019.65 1018.82 1017.96 1016.89 1015.79 1014.46 1013.04 1011.66 1010.24 1008.13 1006.71 1006.01 1004.47 1003.19 1001.02 999.66 999.56 998.11 997.92 998.25 998.69 998.49 1000.03
1022.89 1021.73 1019.53 1018.36 1017.69 1018.40 1018.18 1017.95 1017.04 1016.72 1016.65 1018.06 1020.10 1021.35 1023.05 1023.07 1022.97 1022.21 1021.66 1021.47 1020.93 1020.25 1019.31 1018.54 1017.88 1016.66 1015.26 1014.01 1012.55 1011.43 1010.64 1009.28 1008.58 1005.95 1004.87 1003.26 1003.03 1002.62 1001.39 1001.01 1000.30 1000.24 1000.39 997.95
1022.17 1022.26 1020.11 1018.63 1019.32 1019.33 1018.95 1018.61 1018.24 1018.23 1018.14 1018.09 1020.17 1023.14 1024.13 1024.16 1023.65 1022.92 1022.50 1021.98 1021.50 1020.71 1019.99 1019.19 1018.44 1017.46 1016.29 1015.13 1014.10 1012.44 1011.20 1010.94 1008.42 1007.09 1006.72 1006.11 1003.72 1003.45 1003.53 1003.56 1002.96 1001.84 1000.37 1000.15
1021.02 1021.67 1020.48 1019.01 1019.08 1019.76 1020.44 1020.16 1019.23 1018.37 1019.40 1019.05 1020.88 1023.95 1024.40 1024.11 1023.45 1022.88 1022.15 1021.37 1020.92 1020.47 1019.82 1019.20 1018.68 1017.95 1016.59 1015.63 1014.88 1014.15 1012.56 1011.68 1009.49 1009.77 1006.59 1007.30 1007.54 1006.10 1004.82 1005.34 1004.61 1003.86 1004.07 1003.04
1021.33 1021.02 1020.11 1018.78 1019.31 1019.90 1020.67 1021.00 1020.80 1020.57 1020.49 1020.89 1021.81 1023.95 1023.98 1023.63 1023.08 1022.42 1021.65 1020.78 1020.24 1019.86 1019.40 1018.71 1018.32 1017.98 1017.21 1016.37 1015.67 1015.40 1013.61 1012.36 1011.23 1010.68 1008.91 1007.97 1007.27 1007.43 1007.23 1006.80 1006.51 1006.15 1005.85 1004.93
1021.37 1021.20 1020.81 1020.14 1020.39 1020.92 1021.47 1022.05 1022.36 1022.17 1022.13 1023.12 1023.82 1024.10 1023.72 1023.12 1022.42 1021.56 1020.93 1020.28 1019.71 1019.24 1018.99 1018.64 1018.19 1018.16 1017.81 1017.15 1016.23 1015.66 1014.00 1013.00 1012.36 1011.47 1010.32 1010.65 1008.77 1008.81 1008.34 1008.69 1008.37 1008.36 1008.06 1007.18
1020.28 1020.16 1019.44 1019.19 1019.87 1020.43 1021.40 1022.32 1023.03 1023.23 1023.83 1023.97 1024.42 1024.00 1023.62 1022.77 1021.81 1020.88 1020.47 1019.95 1019.39 1018.90 1018.52 1018.32 1018.00 1017.88 1017.97 1017.57 1016.65 1016.29 1015.36 1014.56 1013.93 1012.61 1011.15 1011.29 1011.44 1010.63 1009.75 1009.82 1009.54 1009.94 1009.04 1008.34
1019.26 1019.16 1018.91 1018.94 1019.23 1020.17 1021.24 1021.97 1022.80 1023.40 1023.75 1023.99 1023.81 1023.38 1022.91 1021.56 1020.60 1020.41 1020.08 1019.68 1019.35 1018.97 1018.65 1018.51 1018.11 1017.88 1017.69 1017.86 1017.49 1016.95 1016.21 1016.02 1014.80 1013.31 1013.75 1013.67 1012.83 1011.30 1012.15 1010.77 1010.60 1010.40 1010.28 1009.41
1019.64 1019.38 1019.08 1018.69 1018.47 1019.73 1020.96 1022.33 1022.27 1022.72 1023.18 1023.16 1022.80 1022.43 1021.58 1020.36 1019.93 1020.12 1019.74 1019.65 1019.49 1019.25 1018.84 1018.48 1018.16 1018.07 1017.72 1017.65 1017.92 1017.64 1016.94 1016.68 1015.84 1014.55 1014.39 1014.83 1014.01 1013.84 1012.66 1012.69 1012.22 1011.18 1011.91 1011.45
1019.45 1019.28 1019.27 1019.23 1019.27 1019.80 1021.34 1021.66 1021.73 1021.84 1021.89 1021.67 1021.30 1020.95 1020.32 1019.58 1019.36 1019.92 1019.85 1019.66 1019.50 1019.16 1019.08 1018.76 1018.34 1018.14 1018.04 1017.86 1017.92 1017.72 1017.41 1016.70 1016.38 1016.20 1015.90 1015.54 1014.72 1013.74 1014.72 1014.05 1013.31 1011.95 1011.16 1011.02
1019.26 1019.38 1019.64 1019.70 1019.52 1020.49 1020.40 1020.47 1021.02 1020.99 1021.65 1020.91 1020.37 1020.21 1020.13 1019.44 1018.83 1019.06 1019.83 1019.87 1019.67 1019.16 1018.89 1018.84 1018.38 1018.18 1018.13 1018.18 1018.01 1017.65 1017.37 1017.11 1016.97 1016.50 1016.37 1015.71 1015.50 1014.79 1013.44 1012.95 1012.89 1012.88 1013.14 1011.67
1018.82 1019.56 1020.11 1020.14 1019.87 1019.78 1020.16 1019.84 1019.59 1020.11 1020.75 1020.51 1019.98 1019.84 1020.05 1019.74 1019.51 1019.83 1020.09 1019.91 1019.67 1019.26 1018.83 1018.65 1018.35 1018.18 1018.13 1018.19 1018.30 1017.86 1017.62 1017.11 1016.82 1016.43 1016.05 1015.68 1015.48 1015.41 1014.43 1014.11 1013.69 1013.48 1012.64 1011.97
1019.12 1019.54 1020.00 1020.26 1020.19 1019.82 1019.86 1019.50 1018.94 1019.60 1020.67 1019.83 1019.68 1019.81 1020.09 1020.21 1020.36 1020.23 1020.06 1019.93 1019.79 1019.48 1018.96 1018.80 1018.54 1018.40 1018.28 1018.28 1018.38 1018.02 1017.68 1017.41 1016.97 1016.52 1016.06 1015.84 1015.73 1015.38 1015.33 1014.94 1014.37 1013.61 1013.05 1013.52
1019.58 1019.78 1019.46 1019.90 1019.98 1019.85 1019.56 1019.27 1019.43 1019.77 1019.52 1019.45 1019.46 1019.72 1020.19 1020.34 1020.27 1020.29 1020.07 1020.02 1019.80 1019.60 1019.32 1019.08 1019.00 1018.63 1018.70 1018.85 1018.92 1018.69 1018.17 1017.58 1017.02 1016.59 1016.00 1015.69 1015.71 1015.86 1015.62 1014.77 1014.52 1014.28 1014.22 1013.59
1019.11 1019.34 1019.61 1019.90 1019.71 1019.55 1019.14 1018.82 1018.86 1018.95 1019.08 1019.21 1019.42 1019.65 1019.91 1020.05 1020.27 1020.35 1020.10 1019.97 1019.73 1019.58 1019.44 1019.40 1019.22 1019.06 1018.96 1019.05 1019.13 1018.72 1018.27 1017.77 1017.71 1017.38 1016.69 1016.23 1015.93 1015.95 1015.73 1015.30 1015.06 1014.52 1013.71 1013.15
1018.24 1018.31 1019.09 1019.33 1018.73 1018.44 1018.37 1018.34 1018.84 1018.73 1018.82 1018.86 1019.25 1019.65 1019.97 1020.22 1020.38 1020.18 1020.05 1019.90 1019.74 1019.65 1019.80 1019.75 1019.53 1019.42 1019.67 1019.67 1019.56 1019.23 1018.78 1018.50 1018.38 1017.89 1017.01 1016.56 1016.30 1015.83 1015.47 1015.25 1015.02 1014.45 1014.07 1013.80
1017.86 1017.76 1017.88 1017.84 1017.71 1017.78 1018.16 1018.28 1018.38 1018.55 1018.83 1018.79 1019.03 1019.47 1019.80 1019.91 1019.98 1020.00 1019.99 1020.07 1020.13 1019.99 1020.11 1019.99 1020.09 1020.19 1020.53 1020.42 1019.85 1019.55 1019.42 1019.17 1018.87 1018.26 1017.29 1017.04 1016.82 1016.60 1016.06 1015.47 1015.07 1014.78 1014.41 1014.16
1017.13 1016.88 1017.01 1017.07 1017.16 1017.54 1017.52 1017.76 1018.12 1018.43 1018.63 1018.70 1019.11 1019.61 1019.73 1019.86 1019.97 1020.03 1020.13 1020.28 1020.10 1020.16 1020.10 1020.44 1020.65 1020.85 1020.73 1020.53 1020.21 1019.92 1019.86 1019.46 1018.97 1018.37 1017.92 1017.63 1017.35 1016.80 1016.32 1015.66 1014.99 1014.76 1014.58 1014.13
Wind_Speed
8 7 10 17 15 18 20 23 26 22 23 26 23 26 23 22 22 22 23 23 24 25 25 22 26 24 21 21 15 18 15 12 17 14 14 13 15 12 12 13 20 22 19 20
9 11 11 14 13 17 19 23 24 24 19 22 24 26 24 19 24 26 27 29 32 33 28 30 30 34 22 20 20 14 22 16 13 15 15 12 14 14 15 15 17 21 22 21
12 15 12 11 16 19 17 19 21 27 25 21 23 20 18 23 28 28 29 28 27 29 31 30 30 27 26 27 28 26 23 21 13 18 14 15 13 15 14 14 15 17 22 22
7 9 17 17 15 13 15 20 24 24 22 16 18 13 20 23 24 28 28 25 28 29 28 27 32 32 27 26 26 27 25 22 12 16 18 21 19 16 14 11 13 15 22 23
11 16 9 9 12 16 23 21 23 24 19 18 22 7 11 21 27 29 26 27 24 23 25 25 24 24 24 26 22 22 22 22 18 22 18 19 17 13 13 11 15 18 19 22
14 15 4 12 16 19 16 20 21 18 12 7 13 2 15 17 21 20 22 25 24 25 24 20 22 23 22 22 23 22 24 21 21 27 9 22 23 20 17 14 14 15 15 16
15 14 15 20 18 13 20 16 6 4 1 4 15 15 14 14 16 22 23 23 23 25 24 24 23 23 25 28 27 22 23 21 23 24 6 18 24 23 22 20 15 17 16 14
8 8 15 16 9 17 15 11 6 7 7 12 13 9 8 17 20 20 20 20 22 25 22 24 24 21 22 24 27 26 23 21 19 19 16 14 25 15 16 22 17 14 17 18
5 5 12 14 9 18 12 12 17 8 14 5 6 4 17 20 19 19 20 21 23 23 23 23 24 22 21 23 23 25 24 22 21 19 17 14 16 16 12 17 22 15 17 16
3 5 8 14 8 12 12 14 7 3 4 5 5 11 8 17 17 17 19 18 19 19 20 22 20 23 21 21 23 22 20 19 18 19 18 17 17 18 17 15 13 10 7 11
6 2 11 8 7 15 10 10 3 3 2 3 5 5 7 9 10 14 12 10 11 15 15 15 18 19 19 20 21 22 23 20 20 21 17 17 21 21 15 16 15 18 16 16
8 1 6 1 15 17 19 15 10 3 8 12 8 6 6 8 7 8 10 7 5 9 11 12 13 16 17 18 20 19 21 21 22 20 21 21 17 19 22 19 20 19 17 17
5 2 6 4 3 14 14 20 20 8 4 19 7 4 4 7 7 8 8 8 5 9 12 12 13 14 18 16 14 17 17 20 20 19 21 21 21 21 20 20 19 19 18 18
5 2 4 3 4 6 6 15 17 14 8 9 10 8 11 12 10 8 8 11 11 11 11 13 12 12 15 15 15 16 19 18 18 20 21 18 21 19 18 17 18 17 17 18
7 5 6 0 9 10 11 11 11 11 9 5 6 6 9 11 12 10 12 12 14 14 15 15 15 13 12 15 15 14 16 17 17 18 19 19 18 17 17 16 16 14 16 15
8 5 12 3 9 13 12 10 10 7 5 3 1 5 6 14 6 10 13 15 16 16 15 14 14 15 14 13 14 14 14 16 14 17 17 15 11 16 14 15 14 14 15 15
6 5 7 5 9 14 6 3 6 7 4 2 5 5 9 10 8 10 13 15 16 16 16 15 13 13 13 13 13 12 13 13 15 15 16 13 14 12 15 12 12 14 10 9
3 7 4 6 11 2 1 6 3 4 5 4 3 8 10 13 9 12 13 14 15 15 14 13 11 10 9 11 11 11 10 10 12 13 13 13 13 14 8 8 8 9 11 11
4 5 4 5 5 11 5 5 0 2 3 8 9 10 14 16 7 16 15 13 13 13 11 11 11 10 10 10 10 11 12 10 10 11 10 12 12 11 15 15 14 12 7 8
5 4 3 5 5 1 5 9 7 3 2 11 11 11 12 13 9 10 13 12 12 13 11 12 13 11 11 11 10 10 11 12 11 11 11 10 10 11 12 12 13 11 11 9
3 2 2 2 3 3 6 10 13 3 6 9 9 12 12 10 8 9 11 12 11 13 14 11 12 11 13 12 14 13 10 12 12 13 9 7 10 9 10 9 8 10 10 6
3 2 1 3 2 3 6 6 6 4 8 10 9 9 8 10 11 11 12 13 13 14 15 14 11 11 10 11 12 14 14 13 13 14 13 9 7 8 9 10 10 9 9 8
4 4 2 2 2 4 10 2 5 5 5 7 5 9 10 10 10 12 11 13 12 12 12 14 12 12 12 13 13 13 14 13 13 15 12 12 7 8 8 9 9 8 10 9
6 6 2 2 5 8 6 3 3 7 9 6 7 6 5 8 9 12 11 11 11 13 13 13 14 14 14 14 15 14 15 14 14 15 13 10 10 12 12 8 7 8 8 9
5 4 7 7 8 3 8 3 3 7 9 4 5 6 9 10 11 11 11 12 12 11 12 12 13 13 14 14 14 14 15 14 13 14 13 12 10 11 10 9 7 7 8 7
10 11 7 7 4 4 4 6 7 6 7 6 5 7 9 9 10 12 10 10 10 11 10 11 12 10 11 13 13 13 11 12 14 13 11 10 10 8 7 8 8 7 8 12
Wind_Direction
318 302 282 291 329 326 319 306 298 299 302 299 296 297 310 317 309 300 299 309 314 329 300 283 289 289 299 288 274 279 261 217 177 173 185 186 199 209 195 183 181 179 183 181
330 300 328 347 326 309 299 294 291 293 307 313 307 299 295 303 19 28 12 2 357 360 350 4 359 360 311 294 298 268 264 241 185 189 185 194 194 203 201 186 181 180 181 182
317 297 317 317 302 297 289 294 310 308 307 293 282 289 8 8 26 14 10 3 1 354 346 349 348 351 344 345 346 336 283 257 213 188 189 195 188 202 201 195 185 180 181 183
308 314 312 300 290 317 314 306 295 297 301 295 308 297 54 7 13 20 12 9 357 353 352 352 347 345 349 341 339 340 334 309 267 201 193 195 211 197 206 195 195 178 182 182
307 305 338 301 354 331 296 311 296 283 275 281 283 274 359 17 16 13 10 10 4 357 349 352 354 344 347 342 340 340 337 328 321 293 197 188 199 203 195 202 193 190 184 188
321 282 22 23 342 315 334 320 300 273 263 264 20 11 27 20 19 21 12 9 2 359 353 345 353 355 351 347 345 354 347 340 336 316 235 196 193 195 204 198 191 191 191 187
334 66 7 21 344 342 347 342 319 357 188 56 54 75 46 32 23 23 17 13 7 1 357 353 349 349 352 355 352 356 354 353 344 332 334 275 190 193 198 198 197 191 202 194
353 331 10 341 355 354 352 353 344 317 332 331 23 55 39 29 21 14 7 5 5 7 357 350 348 352 352 350 358 357 352 359 359 348 349 350 243 196 197 203 197 200 193 201
331 294 324 315 344 16 332 345 307 271 261 81 41 161 57 30 16 6 10 13 6 358 356 355 349 348 351 358 353 351 358 4 358 8 18 37 8 345 215 210 207 200 196 209
166 291 287 338 6 6 355 1 331 315 286 86 71 58 30 15 358 356 6 3 358 353 355 354 356 350 351 355 357 356 356 9 352 17 25 29 34 24 28 22 19 8 304 242
145 207 312 320 41 40 1 353 294 239 253 178 126 78 352 4 340 344 340 345 348 340 346 350 354 349 347 1 360 356 1 359 5 15 21 32 37 40 38 34 18 29 22 28
10 100 295 322 68 59 33 16 345 313 60 75 90 80 297 311 331 341 324 303 305 347 351 348 350 351 350 5 2 355 360 358 17 3 16 23 38 40 39 30 27 25 19 26
293 340 312 96 133 43 38 21 22 11 63 34 56 72 311 333 339 321 325 332 330 2 359 357 2 8 0 359 7 349 353 0 14 9 18 12 20 33 37 28 27 28 23 21
264 254 246 335 94 59 46 42 28 28 34 59 38 18 354 336 327 327 353 359 2 4 11 3 10 9 5 360 7 354 354 11 7 10 20 5 19 16 24 29 30 18 22 25
218 239 270 308 126 101 83 58 46 56 34 47 30 344 328 309 303 355 2 4 6 7 8 11 7 7 14 2 5 8 1 358 2 10 17 14 7 13 19 18 25 17 20 21
353 312 308 356 165 106 76 68 68 62 44 73 299 294 262 290 315 9 6 10 8 3 7 10 5 5 11 11 5 7 4 357 8 14 11 2 3 16 2 20 22 13 14 15
331 314 314 277 200 165 78 5 79 105 136 343 5 280 276 315 65 29 8 11 7 4 2 0 10 9 9 17 5 6 7 359 2 19 4 7 3 17 11 2 11 20 8 359
338 342 341 297 333 219 124 180 215 83 99 13 28 3 349 341 89 53 27 10 1 359 8 357 2 8 21 15 7 355 1 20 8 6 2 355 2 7 5 358 359 7 10 22
38 4 326 319 359 109 51 117 166 307 23 345 13 17 355 347 331 52 18 12 358 352 2 359 353 7 14 25 359 6 357 7 12 0 2 1 357 354 4 4 0 2 333 0
129 42 354 348 313 73 32 350 359 125 201 309 3 9 3 350 354 6 355 1 357 350 359 357 353 3 5 13 7 352 359 354 8 360 347 1 4 354 5 354 354 348 349 348
316 288 244 343 309 105 18 349 312 247 348 340 13 8 7 355 352 350 344 351 353 347 356 0 351 360 358 13 359 352 1 353 1 344 343 13 355 347 359 348 345 350 351 343
263 300 229 253 241 220 346 5 19 329 322 347 3 7 355 348 338 347 347 345 346 345 350 357 354 349 5 6 0 346 349 350 354 340 347 358 10 17 343 350 341 336 330 339
239 220 320 254 343 258 263 291 303 285 295 298 345 1 2 338 339 327 339 339 337 340 346 349 342 345 357 3 354 344 335 344 356 340 343 343 360 7 346 344 340 335 345 344
246 176 216 277 242 245 276 257 358 338 334 4 359 328 338 329 327 321 338 334 339 342 356 338 342 354 355 351 344 343 339 354 348 334 335 349 357 351 347 344 339 343 340 334
279 216 232 265 292 159 246 158 343 355 320 295 303 352 335 338 332 336 338 348 339 352 338 356 352 359 346 339 338 343 350 347 337 328 338 348 353 346 332 334 333 332 325 322
240 236 224 236 278 254 324 18 352 330 309 340 341 327 318 336 327 323 333 321 322 337 350 351 349 338 332 323 332 346 339 335 340 334 342 345 336 326 322 319 321 312 291 303